Weather in Udarnoye

Russia / Sakhalin District     49°06′39″N   142°08′23″E
temp.,
°C
wind,
m/s
gust,
m/s
humid.,
%
clouds,
%
prec.,
mm/h
press.,
hPa
HPBL,
m
8 march, mon
mon823:00−11w3988100 0.3 1018511
02:00−15nw228187 0.1 101930
05:00−18e118444 0.1 101822
08:00−17ese118367 0.0 101922
11:00−9w138384 0.0 1019408
14:00−7w357844 0.0 1019869
17:00−7w367722 0.0 1018767
20:00−12sse12800 0.0 101922
9 march, tue
tue923:00−12se238510 0.0 101949
02:00−10sse129166 0.1 101824
05:00−10sse128849 0.1 101622
08:00−11se238685 0.0 101531
11:00−3s388174 0.0 1013606
14:000ssw4118931 0.0 1010871
17:000ssw6138353 0.0 1006998
20:00−1ssw51391100 0.0 10051056
10 march, wed
wed1023:00−1ssw41198100 0.6 1004747
02:00−3w2798100 3.8 1003561
05:00−5nw259999 4.3 1004204
08:00−9nw3129598 0.2 1006757
11:00−8nnw6139199 0.3 1010861
14:00−7nnw71391100 0.2 1012940
17:00−7nnw61386100 0.3 1014887
20:00−13nw128916 0.0 101731
11 march, thu
thu1123:00−15se11868 0.0 101921
02:00−14se11830 0.0 101721
05:00−12se22810 0.0 101726
08:00−10se229571 0.2 101674
11:00−4wsw488585 1.5 1014990
14:00−3wnw5781100 0.1 10141002
17:00−3nw5108299 0.2 10151288
20:00−9nw129165 0.0 101926
12 march, fri
fri1223:00−10w118968 0.0 102225
02:00−12se119134 0.0 102321
05:00−12ese128817 0.0 102321
08:00−9se228984 0.0 102431
11:00−4w479192 1.3 1024812
14:00−4wnw358493 0.1 1024851
17:00−4w238246 0.1 1024697
20:00−9se22850 0.0 102323